Weather History for Truckee-Tahoe, CA

Change the Weather History Date:

Thursday, December 20, 2012

  Actual Average Record
Temperature  
Mean Temperature 34 °F -  
Max Temperature 39 °F 37 °F 55 °F (1958)
Min Temperature 28 °F 13 °F -8 °F (1978)
Degree Days  
Heating Degree Days 32    
Moisture  
Dew Point 9 °F    
Average Humidity 36    
Maximum Humidity 48    
Minimum Humidity 28    
Precipitation  
Precipitation 0.00 in - - ()
Snow  
Snow 0.00 in - - ()
Snow Depth 1.00 in    
Sea Level Pressure  
Sea Level Pressure 30.02 in    
Wind  
Wind Speed 16 mph (South)    
Max Wind Speed 25 mph    
Max Gust Speed 48 mph    
Visibility 10 miles    
Events      
Averages and records for this station are not official NWS values.
T = Trace of Precipitation, MM = Missing Value Source: NWS Daily Summary

Daily Weather History Graph

Daily Weather History Graph

Search for Another Location

Airport:

Trip Planner

Search our weather history database for the weather conditions in past years. The results will help you decide how hot, cold, wet, or windy it might be!

Date:

Astronomy

Dec. 20, 2012 Rise Set
Actual Time 7:16 AM PST 4:40 PM PST
Civil Twilight 6:46 AM PST 5:10 PM PST
Nautical Twilight 6:12 AM PST 5:44 PM PST
Astronomical Twilight 5:39 AM PST 6:17 PM PST
Moon 11:59 AM PST 12:10 AM PST
Length of Visible Light 10h 24m
Length of Day
9h 23m
First Quarter, 56% of the Moon is Illuminated
Dec 20
First Quarter
Dec 28
Full
Jan 4
Last Quarter
Jan 11
New
Jan 18
First Quarter

Hourly Weather History & Observations

Time (PST) Temp. Windchill Dew Point Humidity Pressure Visibility Wind Dir Wind Speed Gust Speed Precip Events Conditions
12:15 AM 28.4 °F 16.6 °F 10.4 °F 47% 30.11 in 10.0 mi SSW 16.1 mph 19.6 mph N/A   Clear
12:35 AM 32.0 °F 21.6 °F 12.2 °F 44% 30.11 in 10.0 mi SSW 15.0 mph 20.7 mph N/A   Clear
12:55 AM 32.0 °F 21.6 °F 10.4 °F 41% 30.10 in 10.0 mi SSW 15.0 mph 23.0 mph N/A   Clear
1:15 AM 32.0 °F 22.5 °F 10.4 °F 41% 30.10 in 10.0 mi South 12.7 mph 17.3 mph N/A   Clear
1:35 AM 30.2 °F 22.6 °F 10.4 °F 44% 30.10 in 10.0 mi SSW 8.1 mph - N/A   Clear
1:55 AM 32.0 °F 23.0 °F 10.4 °F 41% 30.09 in 10.0 mi SSW 11.5 mph 16.1 mph N/A   Clear
2:15 AM 30.2 °F 21.3 °F 10.4 °F 44% 30.09 in 10.0 mi SSW 10.4 mph - N/A   Clear
2:35 AM 30.2 °F 18.9 °F 10.4 °F 44% 30.09 in 10.0 mi SSW 16.1 mph 20.7 mph N/A   Clear
2:55 AM 32.0 °F 23.0 °F 10.4 °F 41% 30.08 in 10.0 mi South 11.5 mph 17.3 mph N/A   Clear
3:15 AM 32.0 °F 21.6 °F 14.0 °F 48% 30.07 in 10.0 mi SSE 15.0 mph 20.7 mph N/A   Clear
3:35 AM 32.0 °F 21.2 °F 14.0 °F 48% 30.05 in 10.0 mi SSE 16.1 mph 21.9 mph N/A   Clear
3:55 AM 32.0 °F 20.8 °F 14.0 °F 48% 30.05 in 10.0 mi South 17.3 mph 28.8 mph N/A   Clear
4:15 AM 32.0 °F 22.5 °F 14.0 °F 48% 30.05 in 10.0 mi South 12.7 mph 25.3 mph N/A   Clear
4:35 AM 32.0 °F 23.6 °F 14.0 °F 48% 30.06 in 10.0 mi South 10.4 mph 20.7 mph N/A   Clear
4:55 AM 32.0 °F 23.6 °F 14.0 °F 48% 30.06 in 10.0 mi SSW 10.4 mph 19.6 mph N/A   Clear
5:15 AM 32.0 °F 23.6 °F 14.0 °F 48% 30.06 in 10.0 mi SSE 10.4 mph 21.9 mph N/A   Clear
5:35 AM 32.0 °F 19.5 °F 14.0 °F 48% 30.06 in 10.0 mi South 21.9 mph 27.6 mph N/A   Clear
6:45 AM 32.0 °F 21.6 °F 14.0 °F 48% 30.07 in 10.0 mi South 15.0 mph 21.9 mph N/A   Clear
7:50 AM 32.0 °F 21.2 °F 8.6 °F 38% 30.07 in 10.0 mi South 16.1 mph 24.2 mph N/A   Clear
8:45 AM 33.8 °F 22.8 °F 8.6 °F 35% 30.07 in 10.0 mi South 18.4 mph 27.6 mph N/A   Clear
9:45 AM 35.6 °F 26.6 °F 6.8 °F 30% 30.06 in 10.0 mi South 13.8 mph 31.1 mph N/A   Clear
10:55 AM 37.4 °F 26.1 °F 8.6 °F 30% 30.04 in 10.0 mi South 24.2 mph 48.3 mph N/A   Clear
11:45 AM 39.2 °F 29.3 °F 10.4 °F 31% 30.02 in 10.0 mi South 20.7 mph 28.8 mph N/A   Clear
12:45 PM 39.2 °F 29.3 °F 12.2 °F 33% 29.99 in 10.0 mi South 20.7 mph 29.9 mph N/A   Partly Cloudy
1:45 PM 39.2 °F 28.7 °F 10.4 °F 31% 29.98 in 10.0 mi South 23.0 mph 42.6 mph N/A   Partly Cloudy
2:55 PM 39.2 °F 31.2 °F 12.2 °F 33% 29.98 in 10.0 mi South 13.8 mph 26.5 mph N/A   Partly Cloudy
3:50 PM 37.4 °F 27.8 °F 10.4 °F 33% 29.98 in 10.0 mi South 17.3 mph 29.9 mph N/A   Partly Cloudy
4:45 PM 35.6 °F 25.9 °F 10.4 °F 35% 29.98 in 10.0 mi South 16.1 mph 33.4 mph N/A   Partly Cloudy
4:55 PM 35.6 °F 26.2 °F 12.2 °F 38% 29.98 in 10.0 mi South 15.0 mph 23.0 mph N/A   Clear
5:15 PM 35.6 °F 24.8 °F 8.6 °F 33% 29.97 in 10.0 mi South 19.6 mph 33.4 mph N/A   Clear
5:35 PM 35.6 °F 27.5 °F 8.6 °F 33% 29.98 in 10.0 mi South 11.5 mph 27.6 mph N/A   Clear
5:55 PM 35.6 °F 26.6 °F 8.6 °F 33% 29.98 in 10.0 mi South 13.8 mph 29.9 mph N/A   Clear
6:15 PM 33.8 °F 23.5 °F 8.6 °F 35% 29.98 in 10.0 mi South 16.1 mph 20.7 mph N/A   Clear
6:35 PM 35.6 °F 28.0 °F 8.6 °F 33% 29.98 in 10.0 mi South 10.4 mph 18.4 mph N/A   Clear
6:55 PM 35.6 °F 25.9 °F 6.8 °F 30% 29.98 in 10.0 mi South 16.1 mph 34.5 mph N/A   Clear
7:15 PM 35.6 °F 25.2 °F 6.8 °F 30% 29.98 in 10.0 mi South 18.4 mph 25.3 mph N/A   Clear
7:35 PM 35.6 °F 25.9 °F 6.8 °F 30% 29.98 in 10.0 mi South 16.1 mph 33.4 mph N/A   Clear
7:55 PM 35.6 °F 26.6 °F 6.8 °F 30% 29.98 in 10.0 mi SSE 13.8 mph 29.9 mph N/A   Clear
8:15 PM 35.6 °F 25.9 °F 6.8 °F 30% 29.97 in 10.0 mi South 16.1 mph 24.2 mph N/A   Clear
8:35 PM 35.6 °F 24.5 °F 6.8 °F 30% 29.98 in 10.0 mi SSW 20.7 mph 29.9 mph N/A   Clear
8:55 PM 35.6 °F 25.9 °F 6.8 °F 30% 29.98 in 10.0 mi South 16.1 mph 25.3 mph N/A   Clear
9:15 PM 35.6 °F 26.2 °F 6.8 °F 30% 29.98 in 10.0 mi South 15.0 mph 26.5 mph N/A   Clear
9:35 PM 35.6 °F 25.9 °F 5.0 °F 28% 29.98 in 10.0 mi South 16.1 mph 33.4 mph N/A   Clear
9:55 PM 35.6 °F 23.7 °F 5.0 °F 28% 29.97 in 10.0 mi South 24.2 mph 35.7 mph N/A   Clear
10:15 PM 35.6 °F 25.9 °F 5.0 °F 28% 29.97 in 10.0 mi South 16.1 mph 28.8 mph N/A   Clear
10:35 PM 35.6 °F 24.5 °F 5.0 °F 28% 29.97 in 10.0 mi South 20.7 mph 29.9 mph N/A   Clear
10:55 PM 35.6 °F 23.4 °F 5.0 °F 28% 29.96 in 10.0 mi SSW 25.3 mph 36.8 mph N/A   Clear
11:15 PM 35.6 °F 23.7 °F 5.0 °F 28% 29.95 in 10.0 mi SSW 24.2 mph 39.1 mph N/A   Clear
11:35 PM 35.6 °F 23.7 °F 5.0 °F 28% 29.95 in 10.0 mi SSW 24.2 mph 34.5 mph N/A   Clear
11:55 PM 35.6 °F 23.7 °F 5.0 °F 28% 29.94 in 10.0 mi SSW 24.2 mph 33.4 mph N/A   Clear